timestamp,surface_pressure_avg,surface_temp_avg,battery_voltage,lat,long
2017-09-24 00:00:00+00:00,300.8464,14.39,13.05,47.84626,-54.09684
2017-09-24 00:10:00+00:00,309.7014,14.36,12.97,47.84626,-54.09684
2017-09-24 00:20:00+00:00,315.0331,14.38,13.05,47.84626,-54.09684
2017-09-24 00:30:00+00:00,316.3396,14.4,13.05,47.84626,-54.09684
2017-09-24 00:40:00+00:00,327.0847,14.4,13.05,47.84626,-54.09684
2017-09-24 00:50:00+00:00,335.6979,14.4,13.05,47.84626,-54.09684
2017-09-24 01:00:00+00:00,335.538,14.4,13.05,47.84626,-54.09684
2017-09-24 01:10:00+00:00,336.0913,14.4,12.97,47.84626,-54.09684
2017-09-24 01:20:00+00:00,340.983,14.4,13.05,47.84626,-54.09684
2017-09-24 01:30:00+00:00,339.4547,14.4,13.05,47.84626,-54.09684
2017-09-24 01:40:00+00:00,335.8063,14.39,13.05,47.84626,-54.09684
2017-09-24 01:50:00+00:00,339.2863,14.31,13.05,47.84626,-54.09684
2017-09-24 02:00:00+00:00,343.6729,14.35,12.97,47.84626,-54.09684
2017-09-24 02:10:00+00:00,341.9996,14.34,12.97,47.84626,-54.09684
2017-09-24 02:20:00+00:00,339.4263,14.33,12.97,47.84626,-54.09684
2017-09-24 02:30:00+00:00,340.2463,14.31,12.97,47.84626,-54.09684
2017-09-24 02:40:00+00:00,342.0629,14.31,13.05,47.84626,-54.09684
2017-09-24 02:50:00+00:00,337.5379,14.3,13.05,47.84626,-54.09684
2017-09-24 03:00:00+00:00,332.7447,14.3,12.97,47.84626,-54.09684
2017-09-24 03:10:00+00:00,332.4763,14.3,12.89,47.84626,-54.09684
2017-09-24 03:20:00+00:00,335.0613,14.3,12.97,47.84626,-54.09684
2017-09-24 03:30:00+00:00,333.0945,14.3,12.97,47.84626,-54.09684
2017-09-24 03:40:00+00:00,325.1697,14.26,12.97,47.84626,-54.09684
2017-09-24 03:50:00+00:00,326.4697,14.26,13.05,47.84626,-54.09684
2017-09-24 04:00:00+00:00,330.0964,14.21,12.97,47.84626,-54.09684
2017-09-24 04:10:00+00:00,322.8463,14.2,12.89,47.84626,-54.09684
2017-09-24 04:20:00+00:00,311.8931,14.2,12.97,47.84626,-54.09684
2017-09-24 04:30:00+00:00,310.6763,14.2,12.97,47.84626,-54.09684
2017-09-24 04:40:00+00:00,303.0297,14.2,12.97,47.84626,-54.09684
2017-09-24 04:50:00+00:00,286.928,14.2,12.97,47.84626,-54.09684
2017-09-24 05:00:00+00:00,275.1797,14.2,12.97,47.84626,-54.09684
2017-09-24 05:10:00+00:00,274.0864,14.2,12.89,47.84626,-54.09684
2017-09-24 05:20:00+00:00,265.9714,14.2,12.97,47.84626,-54.09684
2017-09-24 05:30:00+00:00,252.8998,14.2,12.97,47.84626,-54.09684
2017-09-24 05:40:00+00:00,246.0647,14.2,12.97,47.84626,-54.09684
2017-09-24 05:50:00+00:00,239.2698,14.2,12.97,47.84626,-54.09684
2017-09-24 06:00:00+00:00,227.1698,14.2,12.97,47.84626,-54.09684
2017-09-24 06:10:00+00:00,215.6364,14.2,12.89,47.84626,-54.09684
2017-09-24 06:20:00+00:00,210.4881,14.2,12.97,47.84626,-54.09684
2017-09-24 06:30:00+00:00,207.0048,14.2,12.97,47.84626,-54.09684
2017-09-24 06:40:00+00:00,201.5347,14.2,12.97,47.84626,-54.09684
2017-09-24 06:50:00+00:00,198.3248,14.2,12.97,47.84626,-54.09684
2017-09-24 07:00:00+00:00,196.3582,14.14,12.89,47.84626,-54.09684
2017-09-24 07:10:00+00:00,195.0581,14.16,12.89,47.84626,-54.09684
2017-09-24 07:20:00+00:00,198.5998,14.11,12.97,47.84626,-54.09684
2017-09-24 07:30:00+00:00,199.6381,14.14,12.97,47.84626,-54.09684
2017-09-24 07:40:00+00:00,198.9365,14.1,12.97,47.84626,-54.09684
2017-09-24 07:50:00+00:00,205.5798,14.1,12.97,47.84626,-54.09684
2017-09-24 08:00:00+00:00,212.5364,14.1,12.89,47.84626,-54.09684
2017-09-24 08:10:00+00:00,212.0115,14.1,12.81,47.84626,-54.09684
2017-09-24 08:20:00+00:00,214.8964,14.1,12.89,47.84626,-54.09684
2017-09-24 08:30:00+00:00,222.3998,14.1,12.89,47.84626,-54.09684
2017-09-24 08:40:00+00:00,224.2115,14.1,12.97,47.84626,-54.09684
2017-09-24 08:50:00+00:00,228.5581,14.1,12.97,47.84626,-54.09684
2017-09-24 09:00:00+00:00,236.0198,14.1,12.89,47.84626,-54.09684
2017-09-24 09:10:00+00:00,241.3931,14.1,12.81,47.84626,-54.09684
2017-09-24 09:20:00+00:00,247.3447,14.1,12.89,47.84626,-54.09684
2017-09-24 09:30:00+00:00,255.9914,14.1,12.89,47.84626,-54.09684
2017-09-24 09:40:00+00:00,260.6497,14.1,12.97,47.84626,-54.09684
2017-09-24 09:50:00+00:00,264.4181,14.1,12.97,47.84626,-54.09684
2017-09-24 10:00:00+00:00,270.5631,14.1,12.89,47.84626,-54.09684
2017-09-24 10:10:00+00:00,272.7781,14.1,12.81,47.84626,-54.09684
2017-09-24 10:20:00+00:00,271.7431,14.1,12.97,47.84626,-54.09684
2017-09-24 10:30:00+00:00,278.8781,14.1,12.97,47.84626,-54.09684
2017-09-24 10:40:00+00:00,288.7531,14.08,12.97,47.84626,-54.09684
2017-09-24 10:50:00+00:00,295.7197,14.09,12.97,47.84626,-54.09684
2017-09-24 11:00:00+00:00,301.8214,14.08,12.97,47.84626,-54.09684
2017-09-24 11:10:00+00:00,308.2563,14.09,12.89,47.84626,-54.09684
2017-09-24 11:20:00+00:00,313.2913,14.09,12.97,47.84626,-54.09684
2017-09-24 11:30:00+00:00,313.6047,14.09,13.05,47.84626,-54.09684
2017-09-24 11:40:00+00:00,319.7263,14.1,13.05,47.84626,-54.09684
2017-09-24 11:50:00+00:00,326.7397,14.1,13.13,47.84626,-54.09684
2017-09-24 12:00:00+00:00,336.2547,14.1,13.13,47.84626,-54.09684
2017-09-24 12:10:00+00:00,337.5763,14.1,13.21,47.84626,-54.09684
2017-09-24 12:20:00+00:00,343.5513,14.1,13.37,47.84626,-54.09684
2017-09-24 12:30:00+00:00,354.1046,14.1,13.37,47.84626,-54.09684
2017-09-24 12:40:00+00:00,364.5613,14.07,13.44,47.84626,-54.09684
2017-09-24 12:50:00+00:00,366.9279,14.1,13.44,47.84626,-54.09684
2017-09-24 13:00:00+00:00,372.9446,14.1,13.44,47.84626,-54.09684
2017-09-24 13:10:00+00:00,383.6979,14.04,13.44,47.84626,-54.09684
2017-09-24 13:20:00+00:00,389.0579,14.1,13.6,47.84626,-54.09684
2017-09-24 13:30:00+00:00,387.0712,14.1,13.68,47.84626,-54.09684
2017-09-24 13:40:00+00:00,388.0229,14.1,13.76,47.84626,-54.09684
2017-09-24 13:50:00+00:00,393.3778,14.1,13.76,47.84626,-54.09684
2017-09-24 14:00:00+00:00,394.8347,14.1,13.68,47.84626,-54.09684
2017-09-24 14:10:00+00:00,390.4529,14.1,13.53,47.84626,-54.09684
2017-09-24 14:20:00+00:00,388.2595,14.1,13.6,47.84626,-54.09684
2017-09-24 14:30:00+00:00,388.9163,14.1,13.6,47.84626,-54.09684
2017-09-24 14:40:00+00:00,388.1213,14.1,13.76,47.84626,-54.09684
2017-09-24 14:50:00+00:00,381.7363,14.1,13.84,47.84626,-54.09684
2017-09-24 15:00:00+00:00,380.9896,14.1,13.76,47.84626,-54.09684
2017-09-24 15:10:00+00:00,382.9279,14.1,13.68,47.84626,-54.09684
2017-09-24 15:20:00+00:00,375.2079,14.1,13.6,47.84626,-54.09684
2017-09-24 15:30:00+00:00,363.9396,14.1,13.44,47.84626,-54.09684
2017-09-24 15:40:00+00:00,363.8496,14.1,13.6,47.84626,-54.09684
2017-09-24 15:50:00+00:00,362.8196,14.1,13.76,47.84626,-54.09684
2017-09-24 16:00:00+00:00,352.6713,14.1,13.76,47.84626,-54.09684
2017-09-24 16:10:00+00:00,344.1813,14.1,13.68,47.84626,-54.09684
2017-09-24 16:20:00+00:00,344.2063,14.1,13.84,47.84626,-54.09684
2017-09-24 16:30:00+00:00,340.1879,14.1,14.24,47.84626,-54.09684
2017-09-24 16:40:00+00:00,329.6847,14.1,13.6,47.84626,-54.09684
2017-09-24 16:50:00+00:00,324.698,14.1,13.44,47.84626,-54.09684
2017-09-24 17:00:00+00:00,321.0097,14.12,13.68,47.84626,-54.09684
2017-09-24 17:10:00+00:00,310.7697,14.14,13.53,47.84626,-54.09684
2017-09-24 17:20:00+00:00,300.4247,14.17,13.76,47.84626,-54.09684
2017-09-24 17:30:00+00:00,291.993,14.19,13.53,47.84626,-54.09684
2017-09-24 17:40:00+00:00,281.1597,14.2,13.6,47.84626,-54.09684
2017-09-24 17:50:00+00:00,272.9431,14.2,13.6,47.84626,-54.09684
2017-09-24 18:00:00+00:00,265.3664,14.18,13.44,47.84626,-54.09684
2017-09-24 18:10:00+00:00,253.1497,14.2,13.6,47.84626,-54.09684
2017-09-24 18:20:00+00:00,237.5964,14.2,13.68,47.84626,-54.09684
2017-09-24 18:30:00+00:00,230.4714,14.2,13.44,47.84626,-54.09684
2017-09-24 18:40:00+00:00,225.1415,14.2,13.53,47.84626,-54.09684
2017-09-24 18:50:00+00:00,216.9364,14.2,13.6,47.84626,-54.09684
2017-09-24 19:00:00+00:00,209.1848,14.2,13.53,47.84626,-54.09684
2017-09-24 19:10:00+00:00,206.0831,14.2,13.44,47.84626,-54.09684
2017-09-24 19:20:00+00:00,201.2848,14.2,13.53,47.84626,-54.09684
2017-09-24 19:30:00+00:00,196.7999,14.2,13.53,47.84626,-54.09684
2017-09-24 19:40:00+00:00,194.1115,14.2,13.53,47.84626,-54.09684
2017-09-24 19:50:00+00:00,194.3531,14.18,13.53,47.84626,-54.09684
2017-09-24 20:00:00+00:00,192.8265,14.19,13.44,47.84626,-54.09684
2017-09-24 20:10:00+00:00,189.8914,14.19,13.29,47.84626,-54.09684
2017-09-24 20:20:00+00:00,195.1731,14.18,13.29,47.84626,-54.09684
2017-09-24 20:30:00+00:00,195.7548,14.19,13.29,47.84626,-54.09684
2017-09-24 20:40:00+00:00,193.1481,14.19,13.29,47.84626,-54.09684
2017-09-24 20:50:00+00:00,194.5298,14.18,13.29,47.84626,-54.09684
2017-09-24 21:00:00+00:00,198.9265,14.17,13.21,47.84626,-54.09684
2017-09-24 21:10:00+00:00,206.1815,14.16,13.05,47.84626,-54.09684
2017-09-24 21:20:00+00:00,212.3631,14.18,13.13,47.84626,-54.09684
2017-09-24 21:30:00+00:00,215.7114,14.18,13.13,47.84626,-54.09684
2017-09-24 21:40:00+00:00,217.4548,14.19,13.13,47.84626,-54.09684
2017-09-24 21:50:00+00:00,220.1714,14.18,13.13,47.84626,-54.09684
2017-09-24 22:00:00+00:00,226.4048,14.16,13.05,47.84626,-54.09684
2017-09-24 22:10:00+00:00,229.5147,14.17,12.97,47.84626,-54.09684
2017-09-24 22:20:00+00:00,231.2714,14.16,13.05,47.84626,-54.09684
2017-09-24 22:30:00+00:00,232.7414,14.1,13.05,47.84626,-54.09684
2017-09-24 22:40:00+00:00,232.9814,14.1,13.05,47.84626,-54.09684
2017-09-24 22:50:00+00:00,240.2681,14.1,13.05,47.84626,-54.09684
2017-09-24 23:00:00+00:00,250.3981,14.1,13.05,47.84626,-54.09684
2017-09-24 23:10:00+00:00,254.7181,14.11,12.97,47.84626,-54.09684
2017-09-24 23:20:00+00:00,256.4947,14.1,13.05,47.84626,-54.09684
2017-09-24 23:30:00+00:00,261.0764,14.1,13.05,47.84626,-54.09684
2017-09-24 23:40:00+00:00,265.2147,14.1,13.05,47.84626,-54.09684
2017-09-24 23:50:00+00:00,267.9597,14.1,13.05,47.84626,-54.09684
